This is the latest recevied weather packets stored in our database for station/object HS3MXC-2. If no packets are shown the sender has not sent any weather packets the latest 10 day(s).
| Time | Temp. | Humidity | Pressure | Rain* | Wind** | Luminosity | Snow |
|---|---|---|---|---|---|---|---|
| 1778043226 | 27.22° C | 41% | 996.6 hPa | - | - | - | - |
| 1778042918 | 27.22° C | 41% | 996.7 hPa | - | - | - | - |
| 1778042304 | 26.67° C | 42% | 996.8 hPa | - | - | - | - |
| 1778041690 | 26.67° C | 44% | 996.9 hPa | - | - | - | - |
| 1778041376 | 26.67° C | 45% | 997 hPa | - | - | - | - |
| 1778041069 | 26.67° C | 46% | 997.1 hPa | - | - | - | - |
| 1778040759 | 26.11° C | 46% | 997.1 hPa | - | - | - | - |
| 1778040452 | 26.11° C | 45% | 997.1 hPa | - | - | - | - |
| 1778040145 | 25.56° C | 47% | 997.2 hPa | - | - | - | - |
| 1778039838 | 25.56° C | 48% | 997.2 hPa | - | - | - | - |
| 1778039530 | 25.56° C | 50% | 997.2 hPa | - | - | - | - |
| 1778039223 | 24.44° C | 53% | 997.3 hPa | - | - | - | - |
| 1778038610 | 24.44° C | 54% | 997.5 hPa | - | - | - | - |
| 1778038301 | 23.89° C | 51% | 997.6 hPa | - | - | - | - |
| 1778037994 | 23.89° C | 50% | 997.6 hPa | - | - | - | - |
| 1778037687 | 23.89° C | 51% | 997.7 hPa | - | - | - | - |
| 1778037380 | 23.89° C | 51% | 997.7 hPa | - | - | - | - |
| 1778036766 | 25° C | 53% | 997.8 hPa | - | - | - | - |
| 1778036454 | 24.44° C | 50% | 997.9 hPa | - | - | - | - |
| 1778036147 | 23.89° C | 47% | 997.9 hPa | - | - | - | - |
| 1778035840 | 23.89° C | 48% | 997.9 hPa | - | - | - | - |
| 1778035533 | 24.44° C | 49% | 998 hPa | - | - | - | - |
| 1778035221 | 24.44° C | 49% | 998 hPa | - | - | - | - |
| 1778034914 | 25° C | 50% | 998 hPa | - | - | - | - |
| 1778034607 | 25° C | 50% | 998 hPa | - | - | - | - |
* Rain since midnight (hover to see other rain measurements)
** Current wind speed in m/s (hover to see current wind gust speed)